Total_Precipitation_Accumulation
1.86 2.17 2.55 2.90 3.12 3.28 3.38 3.69 3.91 3.63 3.16 2.74 2.24 2.05 2.00 1.80 1.59 1.46 1.34 1.42 1.39 1.56 1.73 1.48 1.74 1.54 1.50 1.56 1.58 1.71 1.71 1.55 1.52 1.87 2.03 1.61 1.23 1.24 1.13 1.12 1.31 1.39 1.44
1.41 1.50 1.73 2.07 2.16 2.37 2.68 3.05 3.31 3.15 2.62 2.39 2.19 2.05 1.99 1.84 1.79 1.65 1.56 1.39 1.36 1.45 1.41 1.68 1.56 1.57 1.65 1.66 1.74 1.84 1.84 1.65 1.59 1.88 2.23 1.96 1.87 1.65 0.96 1.07 1.22 1.30 1.53
1.06 1.06 1.16 1.33 1.64 2.13 2.29 2.32 2.57 2.77 2.51 2.39 2.31 2.19 2.10 1.91 1.96 1.87 1.71 1.38 1.25 1.30 1.37 1.41 1.46 1.67 1.50 1.75 1.93 1.86 1.92 1.91 1.74 1.74 2.06 2.12 2.06 1.75 1.34 1.08 1.06 1.22 1.55
0.74 0.89 0.91 0.98 1.18 1.52 1.82 2.05 2.29 2.48 2.40 2.29 2.08 1.91 1.73 1.64 1.63 1.65 1.67 1.53 1.41 1.26 1.27 1.29 1.47 1.65 1.47 1.83 1.53 1.57 1.82 1.97 1.79 1.72 1.59 1.64 1.79 1.91 1.81 1.51 1.19 1.18 1.34
0.44 0.61 0.72 0.81 0.85 1.06 1.46 1.90 2.23 2.47 2.36 2.07 1.90 1.89 1.78 1.73 1.65 1.58 1.77 1.66 1.58 1.38 1.20 1.30 1.44 1.52 1.44 1.56 1.59 1.84 1.77 1.75 1.73 1.74 1.76 1.83 1.71 1.52 1.62 1.69 1.60 1.47 1.17
0.32 0.42 0.47 0.57 0.72 0.86 1.13 1.49 1.80 2.04 2.06 1.92 1.84 1.88 1.88 1.84 1.70 1.51 1.51 1.44 1.46 1.41 1.32 1.39 1.47 1.43 1.38 1.46 1.51 1.64 1.67 1.76 1.85 1.70 1.60 1.73 1.64 1.55 1.58 1.42 1.39 1.44 1.09
0.29 0.41 0.46 0.48 0.56 0.65 0.85 1.13 1.34 1.50 1.70 1.80 1.81 1.78 1.87 1.86 1.67 1.48 1.44 1.46 1.33 1.27 1.29 1.40 1.57 1.51 1.53 1.51 1.63 1.64 1.60 1.68 1.74 1.61 1.48 1.45 1.34 1.44 1.55 1.57 1.38 1.29 1.01
0.24 0.38 0.48 0.48 0.47 0.52 0.70 0.85 1.02 1.23 1.47 1.63 1.69 1.67 1.61 1.50 1.47 1.56 1.46 1.42 1.41 1.35 1.28 1.38 1.42 1.46 1.51 1.51 1.82 1.64 1.54 1.59 1.57 1.42 1.61 1.53 1.23 1.26 1.38 1.56 1.71 1.54 1.27
0.34 0.40 0.51 0.53 0.43 0.45 0.54 0.62 0.81 1.00 1.14 1.35 1.47 1.42 1.45 1.36 1.35 1.40 1.37 1.34 1.45 1.46 1.39 1.31 1.31 1.40 1.51 1.63 1.76 1.65 1.64 1.69 1.51 1.43 1.56 1.45 1.25 1.23 1.19 1.42 1.73 1.87 1.68
0.47 0.50 0.49 0.51 0.45 0.44 0.51 0.60 0.77 0.87 0.94 1.11 1.19 1.12 1.32 1.34 1.44 1.41 1.33 1.27 1.27 1.32 1.37 1.37 1.33 1.41 1.49 1.63 1.75 1.76 1.86 1.90 1.71 1.60 1.60 1.49 1.34 1.40 1.26 1.33 1.59 1.78 1.92
0.53 0.52 0.48 0.51 0.48 0.48 0.53 0.60 0.75 0.85 0.89 1.03 1.08 1.13 1.21 1.25 1.30 1.34 1.36 1.34 1.31 1.34 1.37 1.40 1.43 1.44 1.48 1.63 1.71 1.61 1.81 1.93 1.95 1.77 1.67 1.61 1.62 1.62 1.49 1.51 1.60 1.66 1.86
0.39 0.47 0.50 0.56 0.47 0.49 0.52 0.56 0.66 0.74 0.79 0.95 1.09 1.14 1.25 1.27 1.24 1.27 1.47 1.50 1.47 1.46 1.45 1.48 1.56 1.54 1.56 1.66 1.61 1.48 1.55 1.74 1.94 2.13 2.19 1.97 1.89 1.85 1.70 1.68 1.66 1.68 1.82
0.40 0.50 0.58 0.56 0.49 0.49 0.53 0.57 0.65 0.70 0.75 0.85 0.99 1.16 1.24 1.32 1.39 1.52 1.70 1.79 1.72 1.67 1.69 1.72 1.66 1.66 1.68 1.63 1.56 1.55 1.60 1.71 1.79 1.98 2.16 2.17 2.25 2.03 1.97 1.88 1.80 1.76 1.72
0.39 0.45 0.62 0.65 0.55 0.51 0.54 0.59 0.69 0.77 0.87 1.06 1.19 1.29 1.47 1.61 1.68 1.69 1.78 1.81 1.83 1.86 1.86 1.87 1.80 1.77 1.80 1.77 1.72 1.69 1.69 1.75 1.75 1.77 1.83 1.95 2.20 2.19 2.18 2.04 2.02 2.03 2.01
0.44 0.55 0.69 0.78 0.75 0.69 0.64 0.68 0.82 0.96 1.16 1.38 1.43 1.45 1.56 1.67 1.81 1.98 2.02 2.03 2.04 1.99 2.08 2.04 1.95 1.92 1.93 1.78 1.85 2.00 2.00 2.05 1.90 1.81 1.74 1.72 1.95 2.05 2.06 1.86 1.92 2.08 2.13
0.49 0.56 0.75 0.94 0.99 0.99 0.95 0.99 1.10 1.31 1.58 1.86 1.95 2.03 2.12 2.19 2.25 2.29 2.28 2.34 2.33 2.27 2.17 2.08 2.08 2.07 1.89 2.00 2.05 1.97 2.03 2.19 2.18 2.06 1.98 1.86 1.79 1.78 1.83 1.87 1.91 1.97 1.97
0.65 0.70 0.85 0.99 1.12 1.13 1.15 1.26 1.35 1.55 1.78 1.96 2.05 2.17 2.25 2.36 2.43 2.44 2.42 2.35 2.33 2.28 2.18 2.17 2.21 2.14 2.18 2.14 1.91 1.78 1.79 1.85 1.95 2.03 2.02 1.81 1.67 1.78 1.72 1.87 1.89 1.78 1.71
0.79 0.82 0.92 1.03 1.09 1.19 1.30 1.41 1.46 1.52 1.76 1.94 2.04 2.08 2.14 2.22 2.34 2.46 2.40 2.28 2.24 2.21 2.18 2.17 2.07 2.00 1.97 1.97 1.75 1.70 1.64 1.62 1.59 1.71 1.81 1.77 1.68 1.67 1.73 1.67 1.50 1.38 1.38
0.77 0.83 0.95 1.02 1.11 1.17 1.22 1.19 1.26 1.38 1.52 1.59 1.69 1.75 1.88 2.05 2.18 2.27 2.29 2.30 2.24 2.08 1.98 1.89 1.85 1.81 1.85 1.97 1.76 1.67 1.60 1.64 1.53 1.51 1.51 1.51 1.42 1.51 1.53 1.44 1.28 1.19 1.16
0.75 0.82 0.95 1.02 1.10 1.14 1.15 1.19 1.27 1.44 1.61 1.73 1.80 1.87 1.97 2.10 2.14 2.22 2.31 2.31 2.25 2.20 2.15 2.02 1.95 1.91 1.87 1.99 1.75 1.62 1.54 1.58 1.54 1.52 1.54 1.62 1.45 1.34 1.23 1.15 1.17 1.05 0.99
0.78 0.82 0.94 1.08 1.14 1.19 1.33 1.42 1.51 1.63 1.74 1.78 1.81 1.83 1.90 2.00 2.10 2.24 2.23 2.26 2.24 2.16 2.03 1.90 1.82 1.79 1.75 1.75 1.57 1.46 1.35 1.36 1.36 1.30 1.26 1.36 1.38 1.18 1.02 1.00 0.99 0.94 0.95
0.70 0.85 0.95 1.07 1.19 1.32 1.48 1.59 1.61 1.64 1.73 1.85 1.90 1.88 1.94 1.98 2.02 2.08 2.07 2.06 2.05 1.97 1.90 1.87 1.82 1.78 1.72 1.55 1.38 1.25 1.17 1.19 1.19 1.30 1.31 1.39 1.44 1.20 1.04 0.90 0.83 0.83 0.79
0.76 0.85 0.95 1.08 1.18 1.32 1.46 1.60 1.71 1.77 1.82 1.89 1.97 2.04 2.07 2.07 2.12 2.21 2.24 2.13 2.03 1.96 1.88 1.82 1.67 1.60 1.61 1.59 1.42 1.21 1.12 1.12 1.10 1.32 1.58 1.58 1.52 1.32 1.08 0.98 0.96 0.87 0.76
0.95 0.95 1.00 1.04 1.14 1.25 1.41 1.57 1.70 1.71 1.83 1.90 1.92 2.01 2.11 2.18 2.20 2.21 2.15 2.04 1.90 1.82 1.75 1.66 1.59 1.58 1.59 1.52 1.44 1.32 1.21 1.20 1.19 1.31 1.53 1.64 1.65 1.53 1.36 1.26 1.15 0.94 0.87
1.00 1.01 1.05 1.08 1.13 1.23 1.33 1.55 1.72 1.72 1.77 1.89 1.94 1.92 1.93 1.99 2.04 2.05 1.99 1.86 1.76 1.67 1.61 1.51 1.48 1.47 1.45 1.48 1.45 1.31 1.21 1.17 1.21 1.36 1.59 1.73 1.83 1.84 1.76 1.61 1.49 1.34 1.19
1.04 1.03 1.05 1.09 1.14 1.24 1.35 1.45 1.69 1.88 1.93 1.90 1.81 1.73 1.64 1.62 1.63 1.61 1.63 1.68 1.55 1.54 1.43 1.34 1.28 1.25 1.27 1.29 1.21 1.11 1.07 1.11 1.19 1.28 1.45 1.69 1.87 1.94 2.01 2.00 1.88 1.65 1.46